[keps] orb12082.2l.amsat
Ray Hoad
ray.hoad at mypbmail.com
Thu Mar 22 20:26:28 PDT 2012
SB KEPS @ AMSAT $ORB12082.N
2Line Orbital Elements 12082.AMSAT
HR AMSAT ORBITAL ELEMENTS FOR AMATEUR SATELLITES IN NASA FORMAT
FROM WA5QGD FORT WORTH,TX March 22, 2012
Send SUBSCRIBE KEPS/UNSUBSCRIBE KEPS to majordomo at amsat.org only
BID: ORB12082.N
DECODE 2-LINE ELSETS WITH THE FOLLOWING KEY:
1 AAAAAU 00 0 0 BBBBB.BBBBBBBB .CCCCCCCC 00000-0 00000-0 0 DDDZ
2 AAAAA EEE.EEEE FFF.FFFF GGGGGGG HHH.HHHH III.IIII JJ.JJJJJJJJKKKKKZ
KEY: A-CATALOGNUM B-EPOCHTIME C-DECAY D-ELSETNUM E-INCLINATION F-RAAN
G-ECCENTRICITY H-ARGPERIGEE I-MNANOM J-MNMOTION K-ORBITNUM Z-CHECKSUM
TO ALL RADIO AMATEURS BT
AO-07
1 07530U 74089B 12082.63613545 -.00000027 00000-0 10000-3 0 3379
2 07530 101.4020 083.1963 0012119 092.0812 268.1648 12.53588272709207
FO-29
1 24278U 96046B 12081.92334778 .00000033 00000-0 72807-4 0 08097
2 24278 098.5763 194.0205 0349631 255.2547 100.9609 13.52978999770157
SO-33
1 25509U 98061B 12081.43849982 .00000387 00000-0 64254-4 0 1900
2 25509 031.4318 110.2376 0352671 155.5701 206.2080 14.28685407700090
RS-22
1 27939U 03042A 12082.74272770 .00000424 00000-0 89475-4 0 1953
2 27939 097.8191 287.9622 0013445 174.8036 185.3308 14.63940536453235
VO-52
1 28650U 05017B 12081.60301227 .00001331 00000-0 17010-3 0 550
2 28650 097.6074 116.8145 0025942 331.1591 028.8198 14.82761585371999
HO-68
1 36122U 09072B 12082.79498358 -.00000044 00000-0 00000 0 0 3080
2 36122 100.3715 143.8516 0007116 308.1698 051.8774 13.16294081109020
UO-11
1 14781U 84021B 12082.80836994 .00000568 00000-0 81330-4 0 8207
2 14781 097.9655 143.0508 0008208 319.3322 040.7271 14.80354244507150
AO-16
1 20439U 90005D 12081.95909661 .00000145 00000-0 69873-4 0 04250
2 20439 098.4216 027.8134 0011879 058.6959 301.5383 14.32029119157517
LO-19
1 20442U 90005G 12081.85566204 .00000038 00000-0 29741-4 0 03626
2 20442 098.3872 031.0278 0012813 052.1026 308.1312 14.32248810157681
AO-27
1 22825U 93061C 12082.86988640 .00000099 00000-0 55954-4 0 609
2 22825 098.5665 027.0627 0008420 167.7445 192.3937 14.29439830964143
IO-26
1 22826U 93061D 12081.90745710 .00000133 00000-0 68910-4 0 08279
2 22826 098.5608 026.5095 0008958 164.7193 195.4260 14.29711533964132
GO-32
1 25397U 98043D 12081.80280976 -.00000127 00000-0 -38240-4 0 07331
2 25397 098.3549 064.8490 0001633 144.8233 215.3054 14.23262595711597
NO-44
1 26931U 01043C 12082.65129997 .00000345 00000-0 16623-3 0 9982
2 26931 067.0553 343.3681 0006855 276.7718 083.2615 14.29774661546871
SO-50
1 27607U 02058C 12081.82115404 .00000620 00000-0 11430-3 0 7183
2 27607 064.5571 200.6425 0085021 265.7818 093.3564 14.72268798497109
CO-55
1 27844U 03031E 12080.06123566 -.00000044 00000-0 -38082-6 0 3331
2 27844 098.7046 089.7336 0010658 117.9533 242.2724 14.20977122452230
CO-57
1 27848U 03031J 12082.58478963 .00000195 00000-0 11055-3 0 2857
2 27848 098.7141 091.5165 0010507 114.8401 245.3867 14.20737890452535
AO-51
1 28375U 04025K 12081.79395557 .00000283 00000-0 97688-4 0 2222
2 28375 098.1364 051.1825 0083616 306.5050 052.8464 14.40915588406186
CP3
1 31129U 07012N 12082.72825625 .00000597 00000-0 14555-3 0 1217
2 31129 097.8863 095.5927 0101699 032.8990 327.8443 14.52945544261422
CO-65
1 32785U 08021C 12082.73833753 .00001050 00000-0 13626-3 0 2606
2 32785 097.8096 145.8098 0014564 349.0047 011.0843 14.82772004210957
PRISM
1 33493U 09002B 12082.73301633 .00003033 00000-0 37547-3 0 5378
2 33493 098.1573 221.3321 0018683 214.0642 145.9347 14.83403983170932
SOHLA-1
1 33496U 09002E 12082.85875667 .00000189 00000-0 39883-4 0 6812
2 33496 098.0955 195.2148 0005973 322.8075 037.2707 14.69898082169562
SO-67
1 35870U 09049F 12082.81280956 .00003771 00000-0 16286-3 0 7944
2 35870 097.2432 121.5975 0003750 101.5953 014.9714 15.23079297139465
TISAT-1
1 36799U 10035E 12082.23195446 .00001952 00000-0 25452-3 0 8122
2 36799 098.0681 157.9321 0016429 094.4580 265.8482 14.81647451 91611
STUDSAT
1 36801U 10035G 12081.88265004 .00005729 00000-0 70233-3 0 03706
2 36801 098.0746 157.9468 0014074 084.0761 276.1965 14.83464663091579
FO-69
1 37227U 0 12046.04422040 .00000330 00000-0 54773-4 0 01033
2 37227 071.9672 223.6606 0017759 195.0744 164.9889 14.76923927017912
FO-70
1 37380U 0 12046.50349291 .00000331 00000-0 55150-4 0 01064
2 37380 071.9705 223.0530 0018152 191.1227 168.9536 14.76682035017870
ALMASAT-1
1 38078U 12006B 12082.79039354 .00017029 00000-0 48450-3 0 543
2 38078 069.4904 152.5198 0772678 356.4992 003.0878 14.05809699 5390
XATCOBEO
1 38082U 12006F 12082.60459962 .00039992 00000-0 10433-2 0 1058
2 38082 069.4866 152.6899 0768425 356.6634 002.9502 14.08364735 5360
NOAA-10
1 16969U 86073A 12081.96812665 .00000108 00000-0 61543-4 0 08654
2 16969 098.5929 112.5383 0013103 128.0631 232.1734 14.27535687327425
NOAA-11
1 19531U 88089A 12081.74379584 -.00000225 00000-0 -93768-4 0 08606
2 19531 098.7338 168.7361 0011873 111.6320 248.6121 14.14956562212142
NOAA-12
1 21263U 91032A 12081.94046719 .00000070 00000-0 48546-4 0 03577
2 21263 098.7352 103.9902 0014781 094.3816 265.9053 14.25484218084120
MET-3/5
1 21655U 91056A 12082.84928366 .00000051 00000-0 10000-3 0 3656
2 21655 082.5576 213.1667 0013608 173.0923 187.0392 13.17038728990539
MET-2/21
1 22782U 93055A 12082.59926676 .00000042 00000-0 24080-4 0 3703
2 22782 082.5447 101.2184 0023605 038.7226 321.5615 13.83677389937191
OKEAN-4
1 23317U 94066A 12082.84386432 .00000704 00000-0 82269-4 0 8375
2 23317 082.5383 111.9197 0019693 278.2135 081.6847 14.83643119942001
NOAA-14
1 23455U 94089A 12081.93385693 .00000062 00000-0 55775-4 0 08425
2 23455 098.8281 166.5230 0008997 203.5603 156.5155 14.13884181888463
NOAA-15
1 25338U 98030A 12081.71284845 .00000189 00000-0 99576-4 0 01970
2 25338 098.6848 069.4733 0010765 008.3498 351.7839 14.25043341720393
RESURS
1 25394U 98043A 12081.93933809 .00000135 00000-0 76029-4 0 00542
2 25394 098.3154 074.7936 0002166 116.3202 243.8202 14.24279024711983
FENGYUN1
1 25730U 99025A 12082.89259810 .00000794 00000-0 48010-3 0 5641
2 25730 098.8407 043.4086 0017901 256.3864 103.5306 14.09332517662458
OKEAN-0
1 25860U 99039A 12081.97238848 .00000550 00000-0 90849-4 0 05790
2 25860 097.9256 046.4541 0001342 101.9261 258.2097 14.74124355681728
NOAA-16
1 26536U 00055A 12081.78213103 .00000001 00000-0 25564-4 0 06814
2 26536 099.1057 122.5140 0010123 333.4836 026.5793 14.12715670592694
NOAA-17
1 27453U 02032A 12081.70949284 .00000037 00000-0 33588-4 0 06430
2 27453 098.3458 113.1316 0012540 056.5795 303.6579 14.24405920506303
NOAA-18
1 28654U 05018A 12081.81403768 -.00000031 00000-0 81772-5 0 01209
2 28654 099.0368 039.2188 0014999 043.0189 317.2170 14.11619763352235
NOAA-19
1 33591U 09005A 12081.80226645 .00000246 00000-0 16031-3 0 03103
2 33591 098.8581 022.7048 0013251 269.2664 090.6988 14.11310772160680
HUBBLE
1 20580U 90037B 12082.17000933 .00001521 00000-0 99939-4 0 9677
2 20580 028.4714 352.8983 0003513 209.0182 151.0101 15.02295563 1632
ISS
1 25544U 98067A 12083.07342593 .00015714 00000-0 19947-3 0 2317
2 25544 051.6423 193.7400 0016398 185.6950 169.9923 15.59465667764581
CO-58
1 28895U 05043F 12081.60019920 .00000512 00000-0 11438-3 0 01296
2 28895 097.9286 311.6656 0018815 067.9596 292.3586 14.60529270340871
FALCON
1 30776U 07006E 12081.42065221 .00002980 00000-0 19832-3 0 03146
2 30776 035.4322 092.6491 0002693 317.0139 043.0368 15.06883758277000
MAST
1 31126U 07012K 12081.97054500 .00000594 00000-0 14286-3 0 04240
2 31126 097.8791 098.1657 0094608 023.0598 337.4799 14.54074151261593
CAPE1
1 31130U 07012P 12082.75906214 .00000477 00000-0 11857-3 0 4252
2 31130 097.8840 095.3462 0102353 033.4856 327.2750 14.52822047261222
COMPASS
1 32787U 08021E 12081.33699243 .00001901 00000-0 23624-3 0 02566
2 32787 097.8094 144.5993 0014869 353.0446 007.0559 14.83650445210788
AAUSAT2
1 32788U 08021F 12081.86427899 .00001594 00000-0 19783-3 0 2469
2 32788 097.8136 145.4528 0014266 352.8926 007.2052 14.83942274210886
DO-64
1 32789U 08021G 12081.72278705 .00002504 00000-0 29803-3 0 02629
2 32789 097.8209 147.0212 0014500 348.6791 011.4083 14.85185474210895
CO-66
1 32791U 08021J 12081.15896576 .00001607 00000-0 20326-3 0 02513
2 32791 097.8107 144.2331 0015573 353.1044 006.9922 14.83130797210694
RS-30
1 32953U 08025A 12082.84554339 .00000010 00000-0 00000 0 0 6314
2 32953 082.5066 348.8334 0019079 132.8867 227.3815 12.43021627173833
TACSAT-3
1 35001U 09028A 12082.89401907 .00179600 00000-0 76091-3 0 9156
2 35001 040.4455 245.1458 0011313 348.4796 011.5773 15.83899414160780
PHARMSAT
1 35002U 09028B 12081.89083550 .00057514 00000-0 48009-3 0 8343
2 35002 040.4678 259.5643 0002188 223.2570 136.8086 15.69112560160549
METEOR-M
1 35865U 09049A 12082.80506071 -.00000016 00000-0 12596-4 0 2560
2 35865 098.6651 138.7106 0001906 320.6272 039.4759 14.21857785130322
RS-38
1 35869U 09049E 12082.76836354 .00000014 00000-0 25804-4 0 2629
2 35869 098.6611 138.6839 0003946 310.4042 049.6789 14.22059674130331
JUGNU
1 37839U 11058B 12081.61538222 .00000619 00000-0 19019-3 0 01144
2 37839 019.9623 168.7496 0019132 340.3184 019.6451 14.12035842022855
SRMSAT
1 37841U 11058D 12082.47077233 .00000264 00000-0 00000 0 0 1144
2 37841 019.9713 166.7487 0012138 315.4575 044.4880 14.10123160 22932
RAX-2
1 37853U 11061D 12082.90056841 .00002807 00000-0 23309-3 0 1293
2 37853 101.7160 083.8479 0249855 236.7023 121.0021 14.79226587 21639
AUBIESAT
1 37854U 11061E 12082.87587537 .00002128 00000-0 17697-3 0 1313
2 37854 101.7183 083.9524 0251150 236.1093 121.5987 14.79548207 21620
HRBE
1 37855U 11061F 12082.88215979 .00002086 00000-0 17424-3 0 1303
2 37855 101.7214 083.9438 0251158 236.2332 121.4713 14.79438014 21625
RS-39
1 38051U 11062C 12082.74655919 .00006494 00000-0 28714-3 0 1750
2 38051 051.6428 211.3027 0011246 086.3144 049.9205 15.22851233 8796
E-STAR
1 38079U 12006C 12082.60139100 .00034898 00000-0 88226-3 0 935
2 38079 069.4913 152.6985 0772013 356.6352 002.9719 14.08258324 5366
GOLIAT
1 38085U 12006J 12082.54192043 .00031303 00000-0 81742-3 0 912
2 38085 069.4897 152.8734 0771617 356.7172 002.9021 14.07697944 5357
/EX
More information about the Keps
mailing list